EW9394 Weather Reports


Display with metric or nautical units.
time (UTC)temp
F
wind
direction
speed
MPH
gust
MPH
rain 1hr
in
rain 24hr
in
rain mn
in
humidity
%
barometer
mb
20220117094030 35 227 0.0 0.0 0.00 0.00 0.00 74 1021.3
20220117093529 35 226 0.0 0.0 0.00 0.00 0.00 75 1021.3
20220117093027 35 226 0.0 0.0 0.00 0.00 0.00 75 1021.4
20220117092527 35 220 0.0 0.0 0.00 0.00 0.00 75 1021.2
20220117092026 35 221 0.0 0.0 0.00 0.00 0.00 75 1021.1
20220117091525 35 221 0.0 0.0 0.00 0.00 0.00 76 1021.3
20220117091024 34 219 0.0 0.0 0.00 0.00 0.00 77 1021.2
20220117090523 34 221 0.0 0.0 0.00 0.00 0.00 77 1021.3
20220117090022 34 221 0.0 0.0 0.00 0.00 0.00 77 1021.2
20220117085520 34 219 0.0 0.0 0.00 0.00 0.00 76 1021.4
20220117085020 35 223 0.0 0.0 0.00 0.00 0.00 76 1021.4
20220117084519 35 224 0.0 0.0 0.00 0.00 0.00 76 1021.4
20220117084018 34 221 0.0 0.0 0.00 0.00 0.00 76 1021.3
20220117083517 35 219 0.0 0.0 0.00 0.00 0.00 76 1021.2
20220117083017 35 221 0.0 0.0 0.00 0.00 0.00 75 1021.0
20220117082515 35 220 0.0 0.0 0.00 0.00 0.00 75 1021.3
20220117082014 35 220 0.0 0.0 0.00 0.00 0.00 74 1021.1
20220117081513 35 220 0.0 0.0 0.00 0.00 0.00 74 1021.2
20220117081012 35 219 0.0 0.0 0.00 0.00 0.00 73 1021.1
20220117080511 35 219 0.0 0.0 0.00 0.00 0.00 73 1021.0
20220117080010 35 220 0.0 0.0 0.00 0.00 0.00 72 1021.2
20220117075510 35 220 0.0 0.0 0.00 0.00 0.00 73 1021.1
20220117075009 35 220 0.0 0.0 0.00 0.00 0.00 72 1021.1
20220117074508 35 217 0.0 0.0 0.00 0.00 0.00 72 1021.1
20220117074007 35 219 0.0 0.0 0.00 0.00 0.00 71 1021.1
20220117073507 36 219 0.0 1.0 0.00 0.00 0.00 69 1021.2
20220117073006 35 117 1.0 1.0 0.00 0.00 0.00 71 1021.4
20220117072506 35 221 0.0 1.0 0.00 0.00 0.00 71 1021.2
20220117072005 35 224 0.0 0.0 0.00 0.00 0.00 71 1021.2
20220117071504 36 226 0.0 0.0 0.00 0.00 0.00 70 1021.3
20220117071005 35 223 0.0 0.0 0.00 0.00 0.00 69 1021.4
20220117070503 35 223 0.0 0.0 0.00 0.00 0.00 71 1021.2
20220117070003 35 225 0.0 0.0 0.00 0.00 0.00 71 1021.3
20220117065503 36 223 0.0 0.0 0.00 0.00 0.00 70 1021.2
20220117065002 36 226 0.0 0.0 0.00 0.00 0.00 69 1021.2
20220117064502 36 235 0.0 1.0 0.00 0.00 0.00 68 1021.3
20220117064001 35 226 0.0 0.0 0.00 0.00 0.00 71 1021.2
20220117063500 35 225 0.0 0.0 0.00 0.00 0.00 71 1021.2
20220117063000 35 223 0.0 0.0 0.00 0.00 0.00 72 1021.0
20220117062459 35 225 0.0 0.0 0.00 0.00 0.00 71 1021.3
20220117061957 35 224 0.0 0.0 0.00 0.00 0.00 71 1021.3
20220117061456 36 223 0.0 0.0 0.00 0.00 0.00 71 1021.2
20220117060955 36 229 0.0 0.0 0.00 0.00 0.00 70 1021.1
20220117060453 36 232 0.0 0.0 0.00 0.00 0.00 69 1021.1
20220117055952 36 224 0.0 0.0 0.00 0.00 0.00 70 1021.0
20220117055450 36 234 0.0 0.0 0.00 0.00 0.00 70 1020.9
20220117054949 36 236 0.0 0.0 0.00 0.00 0.00 70 1020.9
20220117054448 36 235 0.0 0.0 0.00 0.00 0.00 70 1020.7
20220117053947 36 237 0.0 0.0 0.00 0.00 0.00 69 1020.8
20220117053446 37 256 1.0 1.0 0.00 0.00 0.00 68 1020.8
20220117052945 36 224 0.0 0.0 0.00 0.00 0.00 68 1020.8
20220117052444 36 223 0.0 0.0 0.00 0.00 0.00 69 1020.7
20220117051943 36 223 0.0 0.0 0.00 0.00 0.00 70 1020.8
20220117051442 36 221 0.0 0.0 0.00 0.00 0.00 70 1020.7
20220117050941 36 223 0.0 0.0 0.00 0.00 0.00 71 1020.7
20220117050440 36 222 0.0 0.0 0.00 0.00 0.00 71 1020.5
20220117045939 36 221 0.0 0.0 0.00 0.00 0.00 70 1020.6
20220117045439 36 221 0.0 0.0 0.00 0.00 0.00 70 1020.4
20220117044938 36 222 0.0 0.0 0.00 0.00 0.00 70 1020.3
20220117044437 36 222 0.0 0.0 0.00 0.00 0.00 70 1020.4
20220117043936 36 223 0.0 0.0 0.00 0.00 0.00 70 1020.3
20220117043437 36 223 0.0 0.0 0.00 0.00 0.00 69 1020.3
20220117042935 36 222 0.0 0.0 0.00 0.00 0.00 68 1020.3
20220117042434 36 222 0.0 0.0 0.00 0.00 0.00 68 1020.3
20220117041933 36 222 0.0 0.0 0.00 0.00 0.00 68 1019.8
20220117041432 36 222 0.0 0.0 0.00 0.00 0.00 69 1019.8
20220117040931 36 222 0.0 0.0 0.00 0.00 0.00 69 1020.1
20220117040431 36 222 0.0 0.0 0.00 0.00 0.00 69 1019.9
20220117035930 36 222 0.0 0.0 0.00 0.00 0.00 69 1019.9
20220117035429 36 222 0.0 0.0 0.00 0.00 0.00 69 1020.2
20220117034927 36 222 0.0 0.0 0.00 0.00 0.00 69 1019.8
20220117034425 36 222 0.0 0.0 0.00 0.00 0.00 69 1019.7
20220117033924 36 222 0.0 0.0 0.00 0.00 0.00 68 1019.8
20220117033423 37 222 0.0 0.0 0.00 0.00 0.00 68 1019.6
20220117032922 37 222 0.0 0.0 0.00 0.00 0.00 67 1019.6
20220117032420 37 220 0.0 0.0 0.00 0.00 0.00 68 1019.5
20220117031918 37 220 0.0 0.0 0.00 0.00 0.00 67 1019.7
20220117031419 37 222 0.0 0.0 0.00 0.00 0.00 67 1019.6
20220117030917 37 223 0.0 0.0 0.00 0.00 0.00 67 1019.5
20220117030416 37 222 0.0 0.0 0.00 0.00 0.00 66 1019.6
20220117025914 37 222 0.0 0.0 0.00 0.00 0.00 66 1019.4
20220117025413 38 223 0.0 0.0 0.00 0.00 0.00 65 1019.3
20220117024912 38 223 0.0 0.0 0.00 0.00 0.00 64 1019.3
20220117024411 38 223 0.0 0.0 0.00 0.00 0.00 63 1019.2
20220117023911 38 223 0.0 0.0 0.00 0.00 0.00 64 1019.1
20220117023409 38 222 0.0 0.0 0.00 0.00 0.00 63 1018.9
20220117022909 38 222 0.0 0.0 0.00 0.00 0.00 63 1019.1
20220117022408 39 222 0.0 0.0 0.00 0.00 0.00 63 1019.1
20220117021907 39 222 0.0 0.0 0.00 0.00 0.00 62 1019.0
20220117021406 39 223 0.0 0.0 0.00 0.00 0.00 62 1019.2
20220117020906 39 223 0.0 0.0 0.00 0.00 0.00 61 1019.2
20220117020406 39 226 0.0 0.0 0.00 0.00 0.00 61 1018.8
20220117015906 39 226 0.0 0.0 0.00 0.00 0.00 61 1019.0
20220117015405 39 227 0.0 0.0 0.00 0.00 0.00 60 1019.0
20220117014903 39 227 0.0 0.0 0.00 0.00 0.00 60 1019.0
20220117014402 39 226 0.0 0.0 0.00 0.00 0.00 59 1018.9
20220117013901 40 226 0.0 0.0 0.00 0.00 0.00 57 1018.9
20220117013400 41 230 0.0 0.0 0.00 0.00 0.00 56 1018.7
20220117012859 41 227 0.0 0.0 0.00 0.00 0.00 60 1018.8
20220117012358 40 208 0.0 0.0 0.00 0.00 0.00 56 1018.6
20220117011856 41 208 0.0 0.0 0.00 0.00 0.00 55 1018.5
20220117011357 42 207 0.0 0.0 0.00 0.00 0.00 53 1018.5
20220117010855 42 207 0.0 0.0 0.00 0.00 0.00 52 1018.5
20220117010355 43 207 0.0 0.0 0.00 0.00 0.00 51 1018.1
20220117005854 43 207 0.0 0.0 0.00 0.00 0.00 51 1018.0
20220117005353 43 207 0.0 0.0 0.00 0.00 0.00 51 1018.1
20220117004852 44 208 0.0 0.0 0.00 0.00 0.00 50 1018.3
20220117004351 43 214 0.0 0.0 0.00 0.00 0.00 50 1018.0
20220117003850 43 224 0.0 0.0 0.00 0.00 0.00 49 1018.0
20220117003349 42 225 0.0 0.0 0.00 0.00 0.00 51 1018.2
20220117002848 43 225 0.0 0.0 0.00 0.00 0.00 49 1017.8
20220117002348 44 229 0.0 0.0 0.00 0.00 0.00 48 1017.8
20220117001847 44 218 0.0 0.0 0.00 0.00 0.00 48 1017.7
20220117001347 45 216 0.0 0.0 0.00 0.00 0.00 46 1017.4
20220117000846 45 219 0.0 0.0 0.00 0.00 0.00 46 1017.3
20220117000347 46 218 0.0 0.0 0.00 0.00 0.00 45 1017.4
20220116235843 47 215 0.0 0.0 0.00 0.00 0.00 44 1017.6
20220116235342 47 214 0.0 0.0 0.00 0.00 0.00 43 1017.7
20220116234842 48 227 0.0 0.0 0.00 0.00 0.00 43 1017.8
20220116234341 48 222 0.0 0.0 0.00 0.00 0.00 42 1017.7
20220116233840 49 224 0.0 0.0 0.00 0.00 0.00 42 1017.6
20220116233339 49 247 1.0 1.0 0.00 0.00 0.00 41 1017.7
20220116232838 49 217 1.0 1.0 0.00 0.00 0.00 41 1017.6
20220116232336 50 233 0.0 0.0 0.00 0.00 0.00 40 1017.5
20220116231836 50 235 1.0 1.0 0.00 0.00 0.00 40 1017.8
20220116231335 50 252 1.0 2.0 0.00 0.00 0.00 39 1018.0
20220116230834 50 253 1.0 2.0 0.00 0.00 0.00 39 1017.9
20220116230333 50 231 0.0 0.0 0.00 0.00 0.00 39 1018.0
20220116225832 50 275 2.0 2.0 0.00 0.00 0.00 38 1018.0
20220116225331 51 232 0.0 0.0 0.00 0.00 0.00 38 1017.7
20220116224830 51 265 2.0 2.0 0.00 0.00 0.00 38 1018.1
20220116224330 51 212 1.0 2.0 0.00 0.00 0.00 38 1018.2
20220116223829 51 224 1.0 1.0 0.00 0.00 0.00 38 1018.2
20220116223328 50 280 1.0 1.0 0.00 0.00 0.00 38 1018.0
20220116222826 51 237 1.0 1.0 0.00 0.00 0.00 38 1018.2
20220116222325 51 243 2.0 2.0 0.00 0.00 0.00 38 1018.1
20220116221824 50 281 1.0 1.0 0.00 0.00 0.00 39 1018.1
20220116221324 50 320 2.0 2.0 0.00 0.00 0.00 38 1018.2
20220116220823 51 236 1.0 1.0 0.00 0.00 0.00 39 1018.2
20220116220321 51 236 1.0 1.0 0.00 0.00 0.00 39 1018.2
20220116215820 51 251 1.0 2.0 0.00 0.00 0.00 40 1017.9
20220116215321 50 233 2.0 2.0 0.00 0.00 0.00 39 1018.0
20220116214820 50 261 2.0 2.0 0.00 0.00 0.00 40 1018.2
20220116214319 50 167 0.0 0.0 0.00 0.00 0.00 40 1018.3
20220116213818 50 355 2.0 3.0 0.00 0.00 0.00 39 1018.2
20220116213317 51 283 4.0 5.0 0.00 0.00 0.00 38 1018.1
20220116212816 51 267 4.0 5.0 0.00 0.00 0.00 39 1018.3
20220116212315 50 229 2.0 2.0 0.00 0.00 0.00 41 1018.1
20220116211814 50 273 2.0 2.0 0.00 0.00 0.00 41 1018.2
20220116211314 50 302 1.0 3.0 0.00 0.00 0.00 41 1018.5
20220116210813 50 251 1.0 1.0 0.00 0.00 0.00 42 1018.4
20220116210312 50 241 1.0 2.0 0.00 0.00 0.00 42 1018.4
20220116205811 50 224 0.0 0.0 0.00 0.00 0.00 42 1018.5
20220116205310 49 277 2.0 2.0 0.00 0.00 0.00 42 1018.4
20220116204808 50 235 1.0 1.0 0.00 0.00 0.00 42 1018.4
20220116204307 50 262 2.0 2.0 0.00 0.00 0.00 42 1018.6
20220116203806 49 227 2.0 2.0 0.00 0.00 0.00 44 1018.4
20220116203305 49 263 4.0 5.0 0.00 0.00 0.00 43 1018.5
20220116202804 49 234 0.0 1.0 0.00 0.00 0.00 45 1018.6
20220116202305 49 352 4.0 5.0 0.00 0.00 0.00 46 1018.7
20220116201803 49 266 2.0 3.0 0.00 0.00 0.00 45 1018.4
20220116201302 50 202 2.0 2.0 0.00 0.00 0.00 45 1018.7
20220116200802 49 260 4.0 5.0 0.00 0.00 0.00 46 1019.0
20220116200301 48 229 2.0 2.0 0.00 0.00 0.00 48 1019.1
20220116195800 48 236 1.0 2.0 0.00 0.00 0.00 49 1019.1
20220116195300 48 243 2.0 5.0 0.00 0.00 0.00 49 1019.1
20220116194759 49 224 1.0 2.0 0.00 0.00 0.00 48 1019.1
20220116194259 49 259 3.0 5.0 0.00 0.00 0.00 47 1019.3
20220116193758 48 283 3.0 3.0 0.00 0.00 0.00 50 1019.2
20220116193257 46 155 0.0 0.0 0.00 0.00 0.00 51 1019.6
20220116192757 47 292 2.0 2.0 0.00 0.00 0.00 51 1019.7
20220116192257 46 287 4.0 6.0 0.00 0.00 0.00 52 1019.5
20220116191758 47 239 2.0 2.0 0.00 0.00 0.00 52 1020.1
20220116191256 46 241 2.0 2.0 0.00 0.00 0.00 53 1019.9
20220116190755 46 242 3.0 5.0 0.00 0.00 0.00 54 1019.9
20220116190255 46 268 5.0 5.0 0.00 0.00 0.00 53 1020.2
20220116185753 46 314 2.0 2.0 0.00 0.00 0.00 53 1019.8
20220116185252 46 243 2.0 3.0 0.00 0.00 0.00 55 1020.5
20220116184751 45 218 4.0 5.0 0.00 0.00 0.00 55 1020.4
20220116184250 44 348 3.0 3.0 0.00 0.00 0.00 55 1020.4
20220116183749 44 231 2.0 2.0 0.00 0.00 0.00 57 1020.5
20220116183248 44 261 2.0 3.0 0.00 0.00 0.00 56 1020.8
20220116182748 44 274 4.0 6.0 0.00 0.00 0.00 56 1020.8
20220116182249 44 259 3.0 3.0 0.00 0.00 0.00 56 1021.2
20220116181747 44 265 3.0 3.0 0.00 0.00 0.00 58 1021.3
20220116181247 43 256 3.0 3.0 0.00 0.00 0.00 59 1021.5
20220116180745 43 301 1.0 1.0 0.00 0.00 0.00 58 1021.6
20220116180244 43 306 2.0 3.0 0.00 0.00 0.00 59 1021.3
20220116175744 43 271 3.0 3.0 0.00 0.00 0.00 59 1021.6
20220116175243 42 229 1.0 2.0 0.00 0.00 0.00 60 1021.7
20220116174741 42 280 3.0 3.0 0.00 0.00 0.00 60 1021.6
20220116174240 42 239 2.0 3.0 0.00 0.00 0.00 60 1021.8
20220116173739 41 238 3.0 3.0 0.00 0.00 0.00 61 1021.9
20220116173239 42 261 7.0 8.0 0.00 0.00 0.00 59 1022.0
20220116172738 41 292 3.0 3.0 0.00 0.00 0.00 60 1022.0
20220116172237 40 249 3.0 3.0 0.00 0.00 0.00 62 1022.0
20220116171736 40 241 3.0 5.0 0.00 0.00 0.00 61 1021.9
20220116171235 40 193 3.0 5.0 0.00 0.00 0.00 61 1022.2
20220116170734 40 268 5.0 6.0 0.00 0.00 0.00 61 1022.4
20220116170233 40 235 2.0 2.0 0.00 0.00 0.00 63 1022.2
20220116165732 39 244 2.0 2.0 0.00 0.00 0.00 63 1022.2
20220116165232 39 330 4.0 6.0 0.00 0.00 0.00 63 1022.3
20220116164730 38 285 5.0 6.0 0.00 0.00 0.00 65 1022.1
20220116164230 37 260 4.0 6.0 0.00 0.00 0.00 66 1022.2
20220116163729 37 226 4.0 5.0 0.00 0.00 0.00 66 1022.2
20220116163227 37 263 2.0 2.0 0.00 0.00 0.00 65 1022.3
20220116162727 36 253 2.0 2.0 0.00 0.00 0.00 67 1022.4
20220116162226 37 265 4.0 7.0 0.00 0.00 0.00 66 1022.2
20220116161727 36 198 3.0 3.0 0.00 0.00 0.00 66 1022.1
20220116161225 35 243 0.0 1.0 0.00 0.00 0.00 68 1022.1
20220116160724 35 288 2.0 3.0 0.00 0.00 0.00 70 1022.3
20220116160224 35 211 3.0 3.0 0.00 0.00 0.00 70 1022.3
20220116155723 34 263 3.0 5.0 0.00 0.00 0.00 70 1022.4
20220116155221 34 247 3.0 6.0 0.00 0.00 0.00 71 1022.4
20220116154721 34 302 3.0 3.0 0.00 0.00 0.00 71 1022.2
20220116154220 34 262 4.0 6.0 0.00 0.00 0.00 70 1022.3
20220116153719 33 235 2.0 2.0 0.00 0.00 0.00 72 1022.2
20220116153218 33 206 2.0 2.0 0.00 0.00 0.00 72 1022.4
20220116152717 33 281 4.0 6.0 0.00 0.00 0.00 73 1022.1
20220116152216 32 258 3.0 3.0 0.00 0.00 0.00 73 1022.4
20220116151715 32 336 4.0 6.0 0.00 0.00 0.00 73 1022.4
20220116151214 32 261 3.0 3.0 0.00 0.00 0.00 74 1022.3
20220116150713 31 6 6.0 7.0 0.00 0.00 0.00 75 1022.2
20220116150212 31 302 4.0 6.0 0.00 0.00 0.00 76 1022.4
20220116145711 31 304 5.0 7.0 0.00 0.00 0.00 76 1022.1
20220116145210 31 333 4.0 6.0 0.00 0.00 0.00 76 1022.1
20220116144709 30 293 4.0 5.0 0.00 0.00 0.00 77 1022.0
20220116144207 30 322 2.0 2.0 0.00 0.00 0.00 78 1022.1
20220116143706 30 232 3.0 5.0 0.00 0.00 0.00 79 1021.8
20220116143206 30 10 1.0 2.0 0.00 0.00 0.00 79 1022.0
20220116142707 30 249 3.0 3.0 0.00 0.00 0.00 80 1022.1
20220116142205 29 254 2.0 2.0 0.00 0.00 0.00 80 1021.8
20220116141705 29 253 5.0 7.0 0.00 0.00 0.00 81 1022.0
20220116141204 29 239 0.0 0.0 0.00 0.00 0.00 81 1022.0
20220116140704 29 254 1.0 2.0 0.00 0.00 0.00 81 1022.1
20220116140203 29 310 1.0 2.0 0.00 0.00 0.00 82 1022.0
20220116135701 29 227 1.0 2.0 0.00 0.00 0.00 82 1021.9
20220116135200 28 313 3.0 3.0 0.00 0.00 0.00 82 1021.9
20220116134659 28 242 1.0 1.0 0.00 0.00 0.00 82 1022.0
20220116134200 28 250 2.0 2.0 0.00 0.00 0.00 82 1022.0
20220116133658 28 272 1.0 2.0 0.00 0.00 0.00 82 1022.2
20220116133157 28 254 1.0 1.0 0.00 0.00 0.00 82 1022.2
20220116132655 28 231 0.0 1.0 0.00 0.00 0.00 82 1022.0
20220116132153 28 250 0.0 1.0 0.00 0.00 0.00 82 1021.9
20220116131654 28 233 3.0 5.0 0.00 0.00 0.00 82 1022.2
20220116131152 29 352 2.0 2.0 0.00 0.00 0.00 81 1022.1
20220116130651 29 272 2.0 3.0 0.00 0.00 0.00 81 1022.2
20220116130150 29 223 1.0 1.0 0.00 0.00 0.00 81 1022.0
20220116125650 29 300 3.0 3.0 0.00 0.00 0.00 81 1022.2
20220116125149 29 242 1.0 2.0 0.00 0.00 0.00 80 1022.1
20220116124648 29 241 2.0 3.0 0.00 0.00 0.00 80 1022.1
20220116124146 29 258 2.0 2.0 0.00 0.00 0.00 80 1022.0
20220116123647 29 321 5.0 6.0 0.00 0.00 0.00 80 1021.9
20220116123146 29 273 3.0 5.0 0.00 0.00 0.00 80 1022.2
20220116122644 29 224 1.0 1.0 0.00 0.00 0.00 79 1022.3
20220116122143 29 219 1.0 1.0 0.00 0.00 0.00 79 1022.2
20220116121642 29 290 3.0 5.0 0.00 0.00 0.00 79 1022.1
20220116121141 29 260 0.0 1.0 0.00 0.00 0.00 79 1021.8
20220116120640 29 231 1.0 2.0 0.00 0.00 0.00 78 1021.9
20220116120139 30 305 3.0 5.0 0.00 0.00 0.00 78 1021.8
20220116115639 30 273 2.0 3.0 0.00 0.00 0.00 78 1021.7
20220116115138 30 312 4.0 5.0 0.00 0.00 0.00 78 1021.6
20220116114637 30 256 3.0 5.0 0.00 0.00 0.00 79 1021.7
20220116114135 30 277 5.0 7.0 0.00 0.00 0.00 78 1021.7
20220116113634 30 242 3.0 5.0 0.00 0.00 0.00 78 1021.3
20220116113133 30 226 1.0 2.0 0.00 0.00 0.00 79 1021.5
20220116112633 30 290 2.0 3.0 0.00 0.00 0.00 78 1021.5
20220116112132 30 248 3.0 3.0 0.00 0.00 0.00 78 1021.5
20220116111631 30 252 2.0 2.0 0.00 0.00 0.00 78 1021.8
20220116111131 30 270 1.0 2.0 0.00 0.00 0.00 77 1021.8
20220116110630 30 291 2.0 2.0 0.00 0.00 0.00 77 1021.9
20220116110128 30 255 3.0 5.0 0.00 0.00 0.00 76 1022.1
20220116105627 30 289 3.0 3.0 0.00 0.00 0.00 76 1022.0
20220116105126 30 273 2.0 2.0 0.00 0.00 0.00 76 1021.9
20220116104625 31 251 1.0 1.0 0.00 0.00 0.00 76 1021.8
20220116104124 31 261 3.0 5.0 0.00 0.00 0.00 76 1021.8
20220116103622 31 274 4.0 6.0 0.00 0.00 0.00 76 1022.2
20220116103121 31 291 4.0 5.0 0.00 0.00 0.00 76 1021.9
20220116102619 31 266 2.0 5.0 0.00 0.00 0.00 76 1021.9
20220116102119 31 307 2.0 2.0 0.00 0.00 0.00 76 1021.8
20220116101618 30 290 4.0 6.0 0.00 0.00 0.00 76 1021.7
20220116101117 31 248 2.0 3.0 0.00 0.00 0.00 76 1021.9
20220116100617 31 252 5.0 7.0 0.00 0.00 0.00 75 1022.1
20220116100117 31 271 3.0 5.0 0.00 0.00 0.00 75 1022.2
20220116095616 31 244 2.0 2.0 0.00 0.00 0.00 75 1022.2
20220116095116 31 250 2.0 3.0 0.00 0.00 0.00 75 1022.4
20220116094615 31 206 4.0 5.0 0.00 0.00 0.00 75 1022.5